Current weather by "City, St" or "zip code"  
 
Advertise Here

Current Conditions: Chariton, IA

Fog/Mist


27.0 F

Last Updated on Jan 25 2021, 3:55 am CST
Humidity: 100%
Wind Speed: E 11.5 mph
Barometer 29.97 in
Dewpoint: 26.6 F
Visibility: 6.00 mi
Precip: --
Heat Index: NA
Wind Chill: 17 F
Current conditions at:

Chariton, IA (KCNC)

Lat: 41.03333 Lon: 93.36667

Local Radar Image active severe weather and emergency alerts image image weather storm and storm spotter reports image weather observation monitoring service image
Local
Radar
Active
Alerts
Storm Reports Obs
Monitoring

Sign-up For Email & Text Message Weather Alert Notification Services


Advertise Here

Observation History for Chariton, IA


Time Wind
(mph)
Vis
(mi)
Weather Precip (in) Temperature (F) Relative
Humidity
Wind
Chill
(F)
Heat
Index
(F)
Pressure
Air Dwpt altimeter
(in)
sea level
(mb)
Rmks
3:55 am CST E 11.5 6.00 Fog/Mist -- 27.0 26.6 100% 17 NA 29.97 M
2:55 am CST NE 11.5 6.00 Fog/Mist -- 27.0 26.6 100% 17 NA 29.97 M
1:55 am CST E 9.2 7.00 Overcast -- 27.0 26.6 100% 18 NA 30.01 M
12:55 am CST NE 11.5 10.00 Overcast -- 27.0 26.6 100% 17 NA 29.99 M
11:55 pm CST NE 11.5 10.00 Overcast -- 27.0 26.6 100% 17 NA 30.03 M
10:55 pm CST NE 11.5 10.00 Overcast -- 27.0 26.6 100% 17 NA 30.04 M
9:55 pm CST NE 8.1 10.00 Overcast -- 27.0 26.6 100% 19 NA 30.04 M
8:55 pm CST NE 10.4 10.00 Overcast -- 27.0 26.6 100% 17 NA 30.03 M
7:55 pm CST NE 9.2 10.00 Overcast -- 27.0 26.6 100% 18 NA 30.04 M
6:55 pm CST NE 9.2 10.00 Overcast -- 28.0 28.4 100% 19 NA 30.05 M
5:55 pm CST NE 9.2 10.00 Overcast -- 28.0 28.4 100% 19 NA 30.06 M
4:55 pm CST NE 8.1 10.00 Overcast -- 30.0 30.2 100% 22 NA 30.06 M
3:55 pm CST NE 8.1 10.00 Overcast -- 30.0 30.2 100% 22 NA 30.05 M
2:55 pm CST NE 9.2 10.00 Overcast -- 30.0 30.2 100% 22 NA 30.03 M
1:55 pm CST N 9.2 10.00 Mostly Cloudy -- 32.0 32.0 100% 24 NA 30.04 M
12:55 pm CST N 11.5 10.00 Overcast -- 32.0 32.0 100% 23 NA 30.03 M
11:55 am CST N 8.1 10.00 Overcast -- 30.0 30.2 100% 22 NA 30.07 M
10:55 am CST N 9.2 G 16.1 10.00 Overcast -- 30.0 30.2 100% 22 NA 30.07 M
9:55 am CST N 10.4 10.00 Overcast -- 30.0 30.2 100% 21 NA 30.05 M
8:55 am CST N 6.9 10.00 Overcast -- 28.0 28.4 100% 21 NA 30.03 M
7:55 am CST N 5.8 10.00 Overcast -- 30.0 30.2 100% 24 NA 30.01 M
6:55 am CST N 4.6 10.00 Overcast -- 30.0 30.2 100% 25 NA 29.98 M
5:55 am CST N 0.0 10.00 Overcast -- 30.0 30.2 100% NA NA 29.96 M
4:55 am CST SE 5.8 10.00 Overcast -- 30.0 30.2 100% 24 NA 29.96 M

Regional Weather Observation


Chariton, IA (KCNC)

Fog/Mist
27.0 F

Knoxville, IA (KOXV)

Overcast
27.0 F

Des Moines International Airport, IA (KDSM)

Overcast
22.0 F

Ankeny Regional Airport, IA (KIKV)

Overcast
21.0 F

Newton Municipal Airport - Earl Johnson Field, IA (KTNU)

Overcast
21.0 F

Ames, Ames Municipal Airport, IA (KAMW)

Overcast
20.0 F